Raleigh-Durham Airport, NC

11:51 AM EST on December 15, 2017 (GMT -0500)
Raleigh-Durham International

Weather History for KRDU - November, 2010

Change the Weather History Date:

Saturday, November 20, 2010

  Actual Average Record
Temperature  
Mean Temperature 55 °F 51 °F  
Max Temperature 69 °F 62 °F 78 °F (1988)
Min Temperature 40 °F 40 °F 19 °F (1951)
Degree Days  
Heating Degree Days 10 14  
Month to date heating degree days 269 232  
Since 1 July heating degree days 378 421  
Cooling Degree Days 0 0  
Month to date cooling degree days 0 1  
Year to date cooling degree days 2315 1721  
Growing Degree Days 5 (Base 50)    
Moisture  
Dew Point 41 °F    
Average Humidity 63    
Maximum Humidity 89    
Minimum Humidity 37    
Precipitation  
Precipitation 0.00 in 0.10 in 2.31 in (1952)
Month to date precipitation 1.37 2.08  
Year to date precipitation 34.47 39.23  
Sea Level Pressure  
Sea Level Pressure 30.30 in    
Wind  
Wind Speed 4 mph (WSW)    
Max Wind Speed 16 mph    
Max Gust Speed 24 mph    
Visibility 10 miles    
Events      
T = Trace of Precipitation, MM = Missing Value Source: NWS Daily Summary

Daily Weather History Graph

Daily Weather History Graph

Search for Another Location

Airport or City:

Trip Planner

Search our weather history database for the weather conditions in past years. The results will help you decide how hot, cold, wet, or windy it might be!

Date:

Astronomy

Nov. 20, 2010 Rise Set
Actual Time 6:56 AM EST 5:04 PM EST
Civil Twilight 6:28 AM EST 5:32 PM EST
Nautical Twilight 5:57 AM EST 6:03 PM EST
Astronomical Twilight 5:27 AM EST 6:34 PM EST
Moon 4:11 PM EST (11/20) 5:53 AM EST (11/20)
Length of Visible Light 11h 03m
Length of Day
10h 08m
Waxing Gibbous, 99% of the Moon is Illuminated
Nov 20
Waxing Gibbous
Nov 21
Full
Nov 28
Last Quarter
Dec 5
New
Dec 13
First Quarter

Hourly Weather History & Observations

Time (EST) Temp. Windchill Dew Point Humidity Pressure Visibility Wind Dir Wind Speed Gust Speed Precip Events Conditions
12:51 AM 42.1 °F - 36.0 °F 79% 30.30 in 10.0 mi Calm Calm - N/A   Clear
1:51 AM 44.1 °F - 37.0 °F 76% 30.31 in 10.0 mi Calm Calm - N/A   Clear
2:51 AM 43.0 °F 41.3 °F 37.0 °F 80% 30.31 in 10.0 mi SSW 3.5 mph - N/A   Clear
3:51 AM 42.1 °F - 37.0 °F 82% 30.30 in 10.0 mi Calm Calm - N/A   Clear
4:51 AM 42.1 °F 40.2 °F 37.9 °F 85% 30.30 in 10.0 mi SW 3.5 mph - N/A   Clear
5:51 AM 41.0 °F 39.0 °F 37.0 °F 86% 30.31 in 10.0 mi SW 3.5 mph - N/A   Clear
6:51 AM 42.1 °F 40.2 °F 37.9 °F 85% 30.32 in 10.0 mi WSW 3.5 mph - N/A   Clear
7:51 AM 42.1 °F 40.2 °F 39.0 °F 89% 30.32 in 10.0 mi WSW 3.5 mph - N/A   Clear
8:51 AM 50.0 °F - 44.1 °F 80% 30.33 in 10.0 mi SW 6.9 mph - N/A   Clear
9:51 AM 55.0 °F - 45.0 °F 69% 30.33 in 10.0 mi SW 8.1 mph - N/A   Clear
10:51 AM 61.0 °F - 45.0 °F 56% 30.32 in 10.0 mi WSW 10.4 mph - N/A   Clear
11:51 AM 64.0 °F - 44.1 °F 48% 30.30 in 10.0 mi WSW 8.1 mph - N/A   Clear
12:51 PM 66.9 °F - 44.1 °F 44% 30.27 in 10.0 mi WSW 12.7 mph - N/A   Clear
1:51 PM 69.1 °F - 43.0 °F 39% 30.25 in 10.0 mi SW 6.9 mph 20.7 mph N/A   Partly Cloudy
2:51 PM 68.0 °F - 42.1 °F 39% 30.25 in 10.0 mi WSW 9.2 mph - N/A   Partly Cloudy
3:51 PM 66.0 °F - 41.0 °F 40% 30.26 in 10.0 mi WSW 6.9 mph - N/A   Clear
4:51 PM 60.1 °F - 42.1 °F 51% 30.26 in 10.0 mi West 3.5 mph - N/A   Clear
5:51 PM 57.0 °F - 41.0 °F 55% 30.27 in 10.0 mi Calm Calm - N/A   Clear
6:51 PM 55.9 °F - 42.1 °F 60% 30.28 in 10.0 mi Calm Calm - N/A   Clear
7:51 PM 52.0 °F - 42.1 °F 69% 30.29 in 10.0 mi Calm Calm - N/A   Clear
8:51 PM 50.0 °F - 42.1 °F 74% 30.29 in 10.0 mi Calm Calm - N/A   Clear
9:51 PM 48.9 °F - 42.1 °F 77% 30.30 in 9.0 mi Calm Calm - N/A   Clear
10:51 PM 46.0 °F - 41.0 °F 83% 30.31 in 10.0 mi Calm Calm - N/A   Partly Cloudy
11:51 PM 46.0 °F - 41.0 °F 83% 30.31 in 10.0 mi Calm Calm - N/A   Partly Cloudy